| time (UTC) | temp F | wind direction | speed MPH | gust MPH | rain 1hr in | rain 24hr in | rain mn in | humidity % | barometer mb |
| 20260505124536 | 59 | 131 | 1.0 | 5.0 | 0.00 | 1.99 | 0.00 | 79 | 1010.6 |
| 20260505123044 | 58 | 153 | 1.0 | 6.0 | 0.00 | 1.99 | 0.00 | 81 | 1010.7 |
| 20260505121529 | 56 | 321 | 1.0 | 5.0 | 0.00 | 1.99 | 0.00 | 83 | 1010.5 |
| 20260505120035 | 55 | 308 | 1.0 | 4.0 | 0.00 | 1.99 | 0.00 | 86 | 1010.4 |
| 20260505114519 | 53 | 155 | 0.0 | 5.0 | 0.00 | 1.99 | 0.00 | 90 | 1010.6 |
| 20260505113015 | 52 | 81 | 0.0 | 3.0 | 0.00 | 1.99 | 0.00 | 94 | 1010.5 |
| 20260505111523 | 50 | 93 | 0.0 | 2.0 | 0.00 | 1.99 | 0.00 | 96 | 1010.3 |
| 20260505101505 | 45 | 48 | 0.0 | 0.0 | 0.00 | 1.99 | 0.00 | 94 | 1010.2 |
| 20260505100004 | 45 | 48 | 0.0 | 0.0 | 0.00 | 1.99 | 0.00 | 93 | 1010.2 |
| 20260505094501 | 45 | 48 | 0.0 | 1.0 | 0.00 | 1.99 | 0.00 | 93 | 1010.2 |
| 20260505093101 | 45 | 48 | 0.0 | 0.0 | 0.00 | 1.99 | 0.00 | 93 | 1010.2 |
| 20260505091621 | 45 | 48 | 0.0 | 1.0 | 0.00 | 1.99 | 0.00 | 92 | 1010.3 |
| 20260505090122 | 45 | 48 | 0.0 | 0.0 | 0.00 | 1.99 | 0.00 | 93 | 1010.4 |
| 20260505084613 | 46 | 48 | 0.0 | 1.0 | 0.00 | 1.99 | 0.00 | 93 | 1010.4 |
| 20260505083107 | 46 | 47 | 0.0 | 0.0 | 0.00 | 1.99 | 0.00 | 92 | 1010.5 |
| 20260505081601 | 46 | 47 | 0.0 | 0.0 | 0.00 | 1.99 | 0.00 | 92 | 1010.5 |
| 20260505074550 | 46 | 47 | 0.0 | 0.0 | 0.00 | 1.99 | 0.00 | 92 | 1010.5 |
| 20260505073054 | 47 | 47 | 0.0 | 1.0 | 0.00 | 1.99 | 0.00 | 91 | 1010.6 |
| 20260505071558 | 47 | 47 | 0.0 | 0.0 | 0.00 | 1.99 | 0.00 | 91 | 1010.7 |
| 20260505070051 | 47 | 47 | 0.0 | 0.0 | 0.00 | 1.99 | 0.00 | 90 | 1010.6 |
| 20260505064544 | 48 | 47 | 0.0 | 2.0 | 0.00 | 1.99 | 0.00 | 90 | 1010.6 |
| 20260505063050 | 48 | 47 | 0.0 | 2.0 | 0.00 | 1.99 | 0.00 | 89 | 1010.8 |
| 20260505061541 | 48 | 46 | 0.0 | 1.0 | 0.00 | 1.99 | 0.00 | 88 | 1010.8 |
| 20260505060055 | 48 | 46 | 0.0 | 2.0 | 0.00 | 1.99 | 0.00 | 88 | 1010.8 |
| 20260505054537 | 49 | 42 | 0.0 | 1.0 | 0.00 | 1.99 | 0.00 | 87 | 1010.8 |
| 20260505053038 | 49 | 28 | 0.0 | 2.0 | 0.00 | 1.99 | 0.00 | 87 | 1010.8 |
| 20260505051535 | 49 | 90 | 0.0 | 1.0 | 0.00 | 1.99 | 0.00 | 86 | 1010.8 |
| 20260505041536 | 50 | 93 | 0.0 | 3.0 | 0.00 | 1.99 | 0.00 | 83 | 1011.0 |
| 20260505040027 | 51 | 101 | 0.0 | 2.0 | 0.00 | 1.99 | 0.00 | 81 | 1011.0 |
| 20260505034527 | 51 | 149 | 0.0 | 2.0 | 0.00 | 1.99 | 1.99 | 81 | 1011.0 |
| 20260505033026 | 51 | 130 | 0.0 | 3.0 | 0.00 | 1.99 | 1.99 | 80 | 1010.9 |
| 20260505031526 | 51 | 140 | 1.0 | 2.0 | 0.00 | 1.99 | 1.99 | 80 | 1010.9 |
| 20260505030026 | 52 | 110 | 0.0 | 3.0 | 0.00 | 1.99 | 1.99 | 79 | 1011.1 |
| 20260505024524 | 52 | 187 | 0.0 | 3.0 | 0.00 | 1.99 | 1.99 | 78 | 1011.1 |
| 20260505023024 | 52 | 106 | 0.0 | 2.0 | 0.00 | 1.99 | 1.99 | 77 | 1011.1 |
| 20260505021524 | 53 | 119 | 0.0 | 2.0 | 0.00 | 1.99 | 1.99 | 76 | 1011.1 |
| 20260505020034 | 53 | 264 | 0.0 | 2.0 | 0.00 | 1.99 | 1.99 | 75 | 1011.1 |
| 20260505014532 | 54 | 349 | 0.0 | 2.0 | 0.00 | 1.99 | 1.99 | 73 | 1011.0 |
| 20260505013030 | 55 | 279 | 0.0 | 3.0 | 0.00 | 1.99 | 1.99 | 71 | 1010.9 |
| 20260505011533 | 55 | 190 | 0.0 | 3.0 | 0.00 | 1.99 | 1.99 | 69 | 1010.7 |
| 20260505010021 | 56 | 71 | 1.0 | 5.0 | 0.00 | 1.99 | 1.99 | 67 | 1010.4 |
| 20260505004525 | 56 | 268 | 0.0 | 2.0 | 0.00 | 1.99 | 1.99 | 65 | 1010.1 |
| 20260505003036 | 57 | 294 | 0.0 | 7.0 | 0.00 | 1.99 | 1.99 | 63 | 1009.9 |
| 20260505001522 | 57 | 101 | 0.0 | 4.0 | 0.00 | 1.99 | 1.99 | 61 | 1009.5 |
| 20260505000024 | 58 | 235 | 1.0 | 4.0 | 0.00 | 1.99 | 1.99 | 59 | 1009.2 |
| 20260504234519 | 59 | 96 | 1.0 | 4.0 | 0.00 | 1.99 | 1.99 | 57 | 1009.0 |
| 20260504233018 | 59 | 238 | 1.0 | 5.0 | 0.00 | 1.99 | 1.99 | 57 | 1008.8 |
| 20260504231519 | 60 | 144 | 2.0 | 7.0 | 0.00 | 1.99 | 1.99 | 54 | 1008.6 |
| 20260504230017 | 62 | 150 | 2.0 | 5.0 | 0.00 | 1.99 | 1.99 | 52 | 1008.3 |
| 20260504224518 | 63 | 241 | 1.0 | 8.0 | 0.00 | 1.99 | 1.99 | 51 | 1008.2 |
| 20260504223017 | 64 | 234 | 1.0 | 4.0 | 0.00 | 1.99 | 1.99 | 49 | 1008.0 |
| 20260504221515 | 64 | 206 | 2.0 | 6.0 | 0.00 | 1.99 | 1.99 | 48 | 1007.8 |
| 20260504220015 | 65 | 284 | 1.0 | 7.0 | 0.00 | 1.99 | 1.99 | 47 | 1007.7 |
| 20260504214517 | 66 | 192 | 1.0 | 9.0 | 0.00 | 1.99 | 1.99 | 47 | 1007.8 |
| 20260504213022 | 67 | 259 | 3.0 | 9.0 | 0.00 | 1.99 | 1.99 | 45 | 1007.5 |
| 20260504211528 | 67 | 254 | 2.0 | 11.0 | 0.00 | 1.99 | 1.99 | 44 | 1007.6 |
| 20260504210011 | 67 | 167 | 2.0 | 8.0 | 0.00 | 1.99 | 1.99 | 43 | 1007.4 |
| 20260504204510 | 68 | 213 | 1.0 | 10.0 | 0.00 | 1.99 | 1.99 | 41 | 1007.5 |
| 20260504203010 | 69 | 207 | 2.0 | 10.0 | 0.05 | 1.99 | 1.99 | 38 | 1007.5 |
| 20260504201508 | 69 | 198 | 2.0 | 8.0 | 0.05 | 1.99 | 1.99 | 38 | 1007.4 |
| 20260504200007 | 70 | 334 | 3.0 | 9.0 | 1.11 | 1.99 | 1.99 | 38 | 1007.4 |
| 20260504194506 | 70 | 182 | 1.0 | 7.0 | 1.99 | 1.99 | 1.99 | 34 | 1007.5 |
| 20260504193006 | 70 | 269 | 3.0 | 9.0 | 1.94 | 1.94 | 1.94 | 35 | 1007.5 |
| 20260504191504 | 69 | 271 | 3.0 | 11.0 | 1.94 | 1.94 | 1.94 | 35 | 1007.5 |
| 20260504190002 | 70 | 323 | 3.0 | 8.0 | 0.83 | 0.83 | 0.83 | 33 | 1007.6 |
| 20260504184603 | 70 | 229 | 3.0 | 13.0 | 0.00 | 0.00 | 0.00 | 32 | 1007.8 |
| 20260504183058 | 70 | 190 | 2.0 | 13.0 | 0.00 | 0.00 | 0.00 | 34 | 1007.8 |
| 20260504181603 | 70 | 291 | 5.0 | 11.0 | 0.00 | 0.00 | 0.00 | 34 | 1008.0 |
| 20260504180057 | 69 | 290 | 5.0 | 14.0 | 0.00 | 0.00 | 0.00 | 34 | 1008.1 |
| 20260504174556 | 70 | 63 | 2.0 | 10.0 | 0.00 | 0.00 | 0.00 | 33 | 1008.1 |
| 20260504173056 | 69 | 293 | 3.0 | 11.0 | 0.00 | 0.00 | 0.00 | 34 | 1008.0 |
| 20260504171552 | 69 | 242 | 2.0 | 8.0 | 0.00 | 0.00 | 0.00 | 33 | 1008.1 |